| time (UTC) | temp C | wind direction | speed KPH | gust KPH | rain 1hr cm | rain 24hr cm | rain mn cm | humidity % | barometer mb |
| 20260503003359 | 13 | 248 | 0.0 | 0.0 | 0.00 | 0.03 | 1.78 | ||
| 20260503002857 | 13 | 248 | 0.0 | 0.0 | 0.00 | 0.03 | 1.78 | ||
| 20260503002358 | 13 | 248 | 0.0 | 0.0 | 0.00 | 0.03 | 1.78 | ||
| 20260503001856 | 13 | 248 | 0.0 | 0.0 | 0.00 | 0.03 | 1.78 | ||
| 20260503001358 | 13 | 248 | 0.0 | 0.0 | 0.00 | 0.03 | 1.78 | ||
| 20260503000856 | 13 | 248 | 0.0 | 0.0 | 0.00 | 0.03 | 1.78 | ||
| 20260503000357 | 13 | 248 | 0.0 | 0.0 | 0.03 | 0.03 | 1.78 | ||
| 20260502235855 | 13 | 248 | 0.0 | 0.0 | 0.03 | 0.03 | 1.78 | ||
| 20260502235357 | 13 | 128 | 0.0 | 0.0 | 0.03 | 0.03 | 1.78 | ||
| 20260502234356 | 13 | 128 | 0.0 | 0.0 | 0.03 | 0.03 | 1.78 | ||
| 20260502233854 | 13 | 128 | 0.0 | 0.0 | 0.03 | 0.03 | 1.78 | ||
| 20260502233355 | 13 | 128 | 0.0 | 0.0 | 0.03 | 0.03 | 1.78 | ||
| 20260502232854 | 13 | 128 | 1.6 | 0.0 | 0.03 | 0.03 | 1.78 | ||
| 20260502232355 | 13 | 115 | 0.0 | 0.0 | 0.03 | 0.03 | 1.78 | ||
| 20260502231853 | 13 | 115 | 0.0 | 0.0 | 0.03 | 0.03 | 1.78 | ||
| 20260502231354 | 13 | 115 | 0.0 | 0.0 | 0.03 | 0.03 | 1.78 | ||
| 20260502230853 | 13 | 115 | 0.0 | 0.0 | 0.03 | 0.03 | 1.78 | ||
| 20260502230354 | 13 | 115 | 0.0 | 0.0 | 0.00 | 0.03 | 1.78 | ||
| 20260502225852 | 13 | 115 | 0.0 | 0.0 | 0.00 | 0.03 | 1.78 | ||
| 20260502225354 | 13 | 115 | 0.0 | 0.0 | 0.00 | 0.03 | 1.78 | ||
| 20260502224852 | 13 | 115 | 0.0 | 0.0 | 0.00 | 0.03 | 1.78 | ||
| 20260502224353 | 13 | 115 | 0.0 | 0.0 | 0.00 | 0.03 | 1.78 | ||
| 20260502223353 | 13 | 103 | 0.0 | 0.0 | 0.00 | 0.03 | 1.78 | ||
| 20260502222851 | 13 | 103 | 0.0 | 0.0 | 0.00 | 0.03 | 1.78 | ||
| 20260502222352 | 14 | 141 | 0.0 | 0.0 | 0.00 | 0.03 | 1.78 | ||
| 20260502221851 | 13 | 141 | 0.0 | 0.0 | 0.00 | 0.03 | 1.78 | ||
| 20260502221352 | 13 | 141 | 0.0 | 0.0 | 0.00 | 0.03 | 1.75 | ||
| 20260502220850 | 13 | 141 | 0.0 | 0.0 | 0.00 | 0.03 | 1.75 | ||
| 20260502220351 | 13 | 114 | 0.0 | 0.0 | 0.08 | 0.03 | 1.75 | ||
| 20260502215850 | 14 | 114 | 0.0 | 0.0 | 0.08 | 0.03 | 1.75 | ||
| 20260502215351 | 13 | 114 | 0.0 | 0.0 | 0.08 | 0.03 | 1.75 | ||
| 20260502214849 | 13 | 114 | 0.0 | 0.0 | 0.08 | 0.03 | 1.75 | ||
| 20260502214350 | 13 | 134 | 0.0 | 0.0 | 0.08 | 0.03 | 1.75 | ||
| 20260502213847 | 13 | 103 | 0.0 | 0.0 | 0.08 | 0.03 | 1.75 | ||
| 20260502213348 | 13 | 120 | 0.0 | 0.0 | 0.08 | 0.03 | 1.75 | ||
| 20260502212846 | 14 | 84 | 0.0 | 0.0 | 0.08 | 0.03 | 1.75 | ||
| 20260502212347 | 13 | 100 | 0.0 | 0.0 | 0.08 | 0.03 | 1.75 | ||
| 20260502211846 | 13 | 121 | 1.6 | 0.0 | 0.08 | 0.03 | 1.75 | ||
| 20260502211347 | 14 | 62 | 0.0 | 0.0 | 0.08 | 0.03 | 1.75 | ||
| 20260502210845 | 14 | 62 | 0.0 | 0.0 | 0.08 | 0.03 | 1.75 | ||
| 20260502210347 | 14 | 62 | 0.0 | 0.0 | 0.03 | 0.03 | 1.75 | ||
| 20260502205845 | 13 | 62 | 0.0 | 0.0 | 0.03 | 0.03 | 1.75 | ||
| 20260502205346 | 13 | 98 | 3.2 | 6.4 | 0.03 | 0.03 | 1.73 | ||
| 20260502204845 | 14 | 52 | 0.0 | 0.0 | 0.03 | 0.03 | 1.73 | ||
| 20260502204346 | 13 | 62 | 0.0 | 0.0 | 0.03 | 0.03 | 1.73 | ||
| 20260502203844 | 14 | 145 | 0.0 | 0.0 | 0.03 | 0.03 | 1.73 | ||
| 20260502203345 | 13 | 145 | 0.0 | 0.0 | 0.03 | 0.03 | 1.73 | ||
| 20260502202844 | 14 | 69 | 0.0 | 0.0 | 0.03 | 0.03 | 1.73 | ||
| 20260502202345 | 13 | 77 | 0.0 | 0.0 | 0.03 | 0.03 | 1.73 | ||
| 20260502201842 | 13 | 77 | 0.0 | 0.0 | 0.03 | 0.03 | 1.70 | ||
| 20260502200842 | 14 | 77 | 0.0 | 0.0 | 0.03 | 0.03 | 1.68 | ||
| 20260502200343 | 14 | 77 | 0.0 | 0.0 | 0.00 | 0.03 | 1.68 | ||
| 20260502195342 | 13 | 94 | 0.0 | 0.0 | 0.00 | 0.03 | 1.68 | ||
| 20260502194841 | 13 | 94 | 0.0 | 0.0 | 0.00 | 0.03 | 1.68 | ||
| 20260502194342 | 14 | 90 | 0.0 | 0.0 | 0.00 | 0.03 | 1.68 | ||
| 20260502193840 | 14 | 63 | 0.0 | 0.0 | 0.00 | 0.03 | 1.68 | ||
| 20260502193342 | 14 | 84 | 0.0 | 0.0 | 0.00 | 0.03 | 1.68 | ||
| 20260502192840 | 14 | 84 | 3.2 | 1.6 | 0.00 | 0.03 | 1.65 | ||
| 20260502192341 | 14 | 108 | 4.8 | 6.4 | 0.00 | 0.03 | 1.65 | ||
| 20260502191839 | 14 | 72 | 0.0 | 0.0 | 0.00 | 0.03 | 1.65 | ||
| 20260502191341 | 14 | 108 | 4.8 | 6.4 | 0.00 | 0.03 | 1.65 | ||
| 20260502190839 | 14 | 60 | 0.0 | 0.0 | 0.00 | 0.03 | 1.65 | ||
| 20260502190340 | 14 | 82 | 0.0 | 0.0 | 0.05 | 0.03 | 1.65 | ||
| 20260502185838 | 14 | 72 | 0.0 | 0.0 | 0.05 | 0.03 | 1.65 | ||
| 20260502185340 | 14 | 44 | 1.6 | 0.0 | 0.05 | 0.03 | 1.65 | ||
| 20260502184838 | 14 | 65 | 3.2 | 0.0 | 0.05 | 0.03 | 1.65 | ||
| 20260502184339 | 14 | 46 | 0.0 | 0.0 | 0.05 | 0.03 | 1.65 | ||
| 20260502183837 | 14 | 82 | 3.2 | 0.0 | 0.05 | 0.03 | 1.65 | ||
| 20260502183338 | 14 | 68 | 1.6 | 0.0 | 0.05 | 0.03 | 1.65 | ||
| 20260502182836 | 15 | 63 | 0.0 | 0.0 | 0.05 | 0.03 | 1.65 | ||
| 20260502182337 | 14 | 63 | 1.6 | 0.0 | 0.05 | 0.03 | 1.65 | ||
| 20260502181835 | 15 | 77 | 8.0 | 3.2 | 0.05 | 0.03 | 1.65 | ||
| 20260502181337 | 15 | 107 | 3.2 | 8.0 | 0.05 | 0.03 | 1.65 | ||
| 20260502180835 | 14 | 52 | 4.8 | 4.8 | 0.05 | 0.03 | 1.65 | ||
| 20260502180336 | 15 | 103 | 1.6 | 6.4 | 0.10 | 0.03 | 1.65 | ||
| 20260502170324 | 15 | 98 | 4.8 | 6.4 | 0.30 | 0.03 | 1.60 | ||
| 20260502164323 | 15 | 89 | 3.2 | 4.8 | 0.30 | 0.03 | 1.57 | ||
| 20260502163820 | 15 | 104 | 4.8 | 6.4 | 0.30 | 0.03 | 1.57 | ||
| 20260502163318 | 15 | 59 | 3.2 | 0.0 | 0.30 | 0.03 | 1.57 | ||
| 20260502162815 | 15 | 56 | 4.8 | 6.4 | 0.30 | 0.03 | 1.55 | ||
| 20260502162316 | 15 | 77 | 4.8 | 4.8 | 0.30 | 0.03 | 1.52 | ||
| 20260502161812 | 16 | 91 | 3.2 | 6.4 | 0.30 | 0.03 | 1.52 | ||
| 20260502160811 | 15 | 90 | 0.0 | 0.0 | 0.30 | 0.03 | 1.50 | ||
| 20260502160312 | 15 | 90 | 0.0 | 0.0 | 0.36 | 0.03 | 1.47 | ||
| 20260502152309 | 15 | 136 | 0.0 | 0.0 | 0.36 | 0.03 | 1.27 | ||
| 20260502151808 | 15 | 136 | 0.0 | 0.0 | 0.36 | 0.03 | 1.24 | ||
| 20260502151308 | 15 | 136 | 0.0 | 0.0 | 0.36 | 0.03 | 1.22 | ||
| 20260502150807 | 15 | 136 | 0.0 | 0.0 | 0.36 | 0.03 | 1.19 | ||
| 20260502150308 | 15 | 65 | 0.0 | 0.0 | 0.38 | 0.03 | 1.12 | ||
| 20260502130252 | 15 | 68 | 0.0 | 0.0 | 0.00 | 0.03 | 0.41 | ||
| 20260502123750 | 15 | 68 | 0.0 | 0.0 | 0.00 | 0.03 | 0.41 | ||
| 20260502123251 | 15 | 68 | 0.0 | 0.0 | 0.00 | 0.03 | 0.41 | ||
| 20260502122749 | 15 | 80 | 1.6 | 0.0 | 0.00 | 0.03 | 0.41 | ||
| 20260502122250 | 15 | 115 | 4.8 | 6.4 | 0.00 | 0.03 | 0.41 | ||
| 20260502121749 | 15 | 107 | 4.8 | 3.2 | 0.00 | 0.03 | 0.41 | ||
| 20260502121250 | 15 | 58 | 3.2 | 0.0 | 0.00 | 0.03 | 0.41 | ||
| 20260502120748 | 15 | 65 | 1.6 | 4.8 | 0.00 | 0.03 | 0.41 | ||
| 20260502120249 | 15 | 65 | 0.0 | 0.0 | 0.18 | 0.03 | 0.41 | ||
| 20260502115748 | 15 | 80 | 0.0 | 0.0 | 0.18 | 0.03 | 0.41 | ||
| 20260502115249 | 15 | 107 | 6.4 | 1.6 | 0.18 | 0.03 | 0.41 | ||
| 20260502114747 | 15 | 79 | 0.0 | 0.0 | 0.18 | 0.03 | 0.41 | ||
| 20260502114248 | 15 | 79 | 0.0 | 0.0 | 0.18 | 0.03 | 0.41 | ||
| 20260502113747 | 15 | 79 | 0.0 | 0.0 | 0.18 | 0.03 | 0.41 | ||
| 20260502113248 | 15 | 79 | 1.6 | 0.0 | 0.18 | 0.03 | 0.41 | ||
| 20260502112744 | 15 | 166 | 0.0 | 0.0 | 0.18 | 0.03 | 0.41 | ||
| 20260502112245 | 15 | 48 | 0.0 | 0.0 | 0.18 | 0.03 | 0.41 | ||
| 20260502111743 | 15 | 48 | 0.0 | 0.0 | 0.18 | 0.03 | 0.41 | ||
| 20260502111245 | 15 | 177 | 0.0 | 0.0 | 0.18 | 0.03 | 0.41 | ||
| 20260502110743 | 15 | 177 | 0.0 | 0.0 | 0.08 | 0.03 | 0.41 | ||
| 20260502110244 | 15 | 177 | 0.0 | 0.0 | 0.08 | 0.03 | 0.41 | ||
| 20260502105742 | 15 | 46 | 3.2 | 0.0 | 0.08 | 0.03 | 0.38 | ||
| 20260502105243 | 15 | 87 | 0.0 | 0.0 | 0.08 | 0.03 | 0.38 | ||
| 20260502104742 | 15 | 143 | 3.2 | 3.2 | 0.08 | 0.03 | 0.36 | ||
| 20260502104243 | 15 | 62 | 0.0 | 0.0 | 0.08 | 0.03 | 0.33 | ||
| 20260502103741 | 15 | 62 | 0.0 | 0.0 | 0.08 | 0.03 | 0.30 | ||
| 20260502102741 | 15 | 62 | 0.0 | 0.0 | 0.08 | 0.03 | 0.28 | ||
| 20260502102242 | 15 | 62 | 0.0 | 0.0 | 0.08 | 0.03 | 0.25 | ||
| 20260502101740 | 15 | 62 | 0.0 | 0.0 | 0.08 | 0.03 | 0.25 | ||
| 20260502101241 | 15 | 62 | 0.0 | 0.0 | 0.08 | 0.03 | 0.25 | ||
| 20260502100739 | 15 | 62 | 0.0 | 0.0 | 0.08 | 0.03 | 0.23 | ||
| 20260502100241 | 15 | 62 | 0.0 | 0.0 | 0.08 | 0.03 | 0.23 | ||
| 20260502091237 | 15 | 62 | 0.0 | 0.0 | 0.08 | 0.03 | 0.18 | ||
| 20260502090735 | 15 | 62 | 0.0 | 0.0 | 0.08 | 0.03 | 0.15 | ||
| 20260502090236 | 15 | 62 | 0.0 | 0.0 | 0.08 | 0.03 | 0.15 | ||
| 20260502071230 | 16 | 62 | 0.0 | 0.0 | 0.00 | 0.03 | 0.00 | ||
| 20260502070728 | 16 | 62 | 0.0 | 0.0 | 0.00 | 0.03 | 0.00 | ||
| 20260502070228 | 16 | 62 | 0.0 | 0.0 | 0.00 | 0.03 | 0.00 | ||
| 20260502065727 | 16 | 62 | 0.0 | 0.0 | 0.00 | 0.03 | 0.00 | ||
| 20260502065228 | 16 | 62 | 0.0 | 0.0 | 0.00 | 0.03 | 0.00 | ||
| 20260502064726 | 16 | 62 | 0.0 | 0.0 | 0.00 | 0.03 | 0.00 | ||
| 20260502064228 | 16 | 62 | 0.0 | 0.0 | 0.00 | 0.03 | 0.00 | ||
| 20260502063726 | 16 | 62 | 0.0 | 0.0 | 0.00 | 0.03 | 0.00 | ||
| 20260502063227 | 16 | 62 | 0.0 | 0.0 | 0.00 | 0.03 | 0.00 | ||
| 20260502062725 | 16 | 62 | 0.0 | 0.0 | 0.00 | 0.03 | 0.00 | ||
| 20260502062227 | 16 | 80 | 0.0 | 0.0 | 0.00 | 0.03 | 0.00 | ||
| 20260502061725 | 16 | 80 | 0.0 | 0.0 | 0.00 | 0.03 | 0.00 | ||
| 20260502061226 | 16 | 80 | 0.0 | 0.0 | 0.00 | 0.03 | 0.00 | ||
| 20260502060725 | 16 | 80 | 0.0 | 0.0 | 0.00 | 0.03 | 0.00 | ||
| 20260502060226 | 16 | 80 | 0.0 | 0.0 | 0.00 | 0.03 | 0.00 | ||
| 20260502055724 | 16 | 80 | 0.0 | 0.0 | 0.00 | 0.03 | 0.00 | ||
| 20260502055225 | 16 | 135 | 4.8 | 4.8 | 0.00 | 0.03 | 0.00 | ||
| 20260502054724 | 16 | 73 | 4.8 | 4.8 | 0.00 | 0.03 | 0.00 | ||
| 20260502053723 | 16 | 44 | 0.0 | 0.0 | 0.00 | 0.03 | 0.00 | ||
| 20260502053224 | 16 | 44 | 0.0 | 0.0 | 0.00 | 0.03 | 0.00 | ||
| 20260502052723 | 16 | 44 | 0.0 | 0.0 | 0.00 | 0.03 | 0.00 | ||
| 20260502052224 | 16 | 44 | 0.0 | 0.0 | 0.00 | 0.03 | 0.00 | ||
| 20260502051224 | 16 | 44 | 0.0 | 0.0 | 0.00 | 0.03 | 0.00 | ||
| 20260502050722 | 16 | 44 | 0.0 | 0.0 | 0.00 | 0.03 | 0.00 | ||
| 20260502050223 | 16 | 44 | 0.0 | 0.0 | 0.00 | 0.03 | 0.00 | ||
| 20260502045721 | 16 | 44 | 0.0 | 0.0 | 0.00 | 0.03 | 0.00 | ||
| 20260502045222 | 17 | 44 | 0.0 | 0.0 | 0.00 | 0.03 | 0.00 | ||
| 20260502044721 | 16 | 44 | 0.0 | 0.0 | 0.00 | 0.03 | 0.00 | ||
| 20260502044222 | 16 | 44 | 3.2 | 1.6 | 0.00 | 0.03 | 0.00 | ||
| 20260502043720 | 16 | 70 | 3.2 | 3.2 | 0.00 | 0.03 | 0.00 | ||
| 20260502042720 | 16 | 62 | 0.0 | 0.0 | 0.00 | 0.03 | 0.00 | ||
| 20260502042221 | 16 | 49 | 0.0 | 0.0 | 0.00 | 0.03 | 0.00 | ||
| 20260502041720 | 16 | 49 | 0.0 | 0.0 | 0.00 | 0.03 | 0.00 | ||
| 20260502041221 | 16 | 69 | 3.2 | 3.2 | 0.00 | 0.03 | 0.00 | ||
| 20260502040220 | 16 | 70 | 3.2 | 3.2 | 0.03 | 0.61 | 0.03 | ||
| 20260502035719 | 17 | 72 | 3.2 | 3.2 | 0.03 | 0.61 | 0.03 | ||
| 20260502035220 | 16 | 72 | 3.2 | 4.8 | 0.03 | 0.61 | 0.03 | ||
| 20260502034718 | 16 | 56 | 0.0 | 0.0 | 0.03 | 0.61 | 0.03 | ||
| 20260502034220 | 16 | 56 | 0.0 | 0.0 | 0.03 | 0.61 | 0.03 | ||
| 20260502033718 | 16 | 56 | 0.0 | 0.0 | 0.03 | 0.61 | 0.03 | ||
| 20260502033219 | 16 | 56 | 0.0 | 0.0 | 0.03 | 0.61 | 0.03 | ||
| 20260502032718 | 16 | 56 | 0.0 | 0.0 | 0.03 | 0.61 | 0.03 | ||
| 20260502032219 | 16 | 56 | 0.0 | 0.0 | 0.03 | 0.61 | 0.03 | ||
| 20260502031718 | 16 | 56 | 0.0 | 0.0 | 0.03 | 0.61 | 0.03 | ||
| 20260502031219 | 16 | 56 | 0.0 | 0.0 | 0.03 | 0.61 | 0.03 | ||
| 20260502030717 | 17 | 56 | 0.0 | 0.0 | 0.00 | 0.61 | 0.03 | ||
| 20260502030218 | 16 | 56 | 0.0 | 0.0 | 0.00 | 0.61 | 0.03 | ||
| 20260502025717 | 16 | 56 | 0.0 | 0.0 | 0.00 | 0.61 | 0.03 | ||
| 20260502025218 | 16 | 56 | 0.0 | 0.0 | 0.00 | 0.61 | 0.03 | ||
| 20260502024716 | 16 | 56 | 0.0 | 0.0 | 0.00 | 0.61 | 0.03 | ||
| 20260502024218 | 17 | 56 | 0.0 | 0.0 | 0.00 | 0.61 | 0.03 | ||
| 20260502023716 | 17 | 56 | 0.0 | 0.0 | 0.00 | 0.61 | 0.00 | ||
| 20260502023217 | 16 | 56 | 0.0 | 0.0 | 0.00 | 0.61 | 0.00 | ||
| 20260502022715 | 17 | 60 | 3.2 | 1.6 | 0.00 | 0.61 | 0.00 | ||
| 20260502022217 | 17 | 75 | 1.6 | 1.6 | 0.00 | 0.61 | 0.00 | ||
| 20260502021715 | 17 | 53 | 0.0 | 0.0 | 0.00 | 0.61 | 0.00 | ||
| 20260502021216 | 17 | 53 | 1.6 | 0.0 | 0.00 | 0.61 | 0.00 | ||
| 20260502020715 | 17 | 68 | 1.6 | 1.6 | 0.00 | 0.61 | 0.00 | ||
| 20260502020215 | 17 | 68 | 3.2 | 3.2 | 0.00 | 0.61 | 0.00 | ||
| 20260502015215 | 17 | 73 | 1.6 | 3.2 | 0.00 | 0.61 | 0.00 | ||
| 20260502014713 | 17 | 69 | 1.6 | 1.6 | 0.00 | 0.61 | 0.00 | ||
| 20260502014214 | 17 | 70 | 1.6 | 1.6 | 0.00 | 0.61 | 0.00 | ||
| 20260502013713 | 17 | 66 | 3.2 | 3.2 | 0.00 | 0.61 | 0.00 | ||
| 20260502013214 | 17 | 45 | 1.6 | 0.0 | 0.00 | 0.61 | 0.00 | ||
| 20260502012713 | 17 | 66 | 1.6 | 1.6 | 0.00 | 0.61 | 0.00 | ||
| 20260502012213 | 17 | 63 | 1.6 | 1.6 | 0.00 | 0.61 | 0.00 | ||
| 20260502011712 | 17 | 72 | 3.2 | 3.2 | 0.00 | 0.61 | 0.00 | ||
| 20260502010711 | 17 | 65 | 3.2 | 1.6 | 0.00 | 0.61 | 0.00 | ||
| 20260502010213 | 17 | 62 | 1.6 | 1.6 | 0.00 | 0.61 | 0.00 | ||
| 20260502005710 | 17 | 70 | 0.0 | 1.6 | 0.00 | 0.61 | 0.00 | ||
| 20260502005211 | 17 | 69 | 3.2 | 3.2 | 0.00 | 0.61 | 0.00 | ||
| 20260502004710 | 17 | 69 | 1.6 | 1.6 | 0.00 | 0.61 | 0.00 | ||
| 20260502004211 | 17 | 70 | 3.2 | 4.8 | 0.00 | 0.61 | 0.00 |